• In Netherlands
  • List of Countries
  • For 7 days
  • Water Temperature
  • Satellite Maps
  • Weather Map
  • Weather Widgets
  • user-avatar
    Login

    Hourly Weather Etchmiadzin

    Today, 19 July, Thursday

    Time Temperature Precipitation Wind Pressure Humidity
    00:00 +25°C° 0.2 mm 3 mps 680 mmHg 66%
    01:00 +24°C° 0 mm 2 mps 680 mmHg 67%
    02:00 +24°C° 0 mm 2 mps 680 mmHg 68%
    03:00 +22°C° 0 mm 3 mps 680 mmHg 70%
    04:00 +24°C° 0 mm 2 mps 680 mmHg 69%
    05:00 +24°C° 0 mm 2 mps 680 mmHg 68%
    06:00 +24°C° 0 mm 2 mps 681 mmHg 67%
    07:00 +27°C° 0 mm 2 mps 681 mmHg 58%
    08:00 +29°C° 0 mm 2 mps 681 mmHg 49%
    09:00 +31°C° 0 mm 2 mps 681 mmHg 40%
    10:00 +34°C° 0 mm 2 mps 681 mmHg 35%
    11:00 +35°C° 0 mm 3 mps 681 mmHg 30%
    12:00 +36°C° 0 mm 3 mps 681 mmHg 25%
    13:00 +37°C° 0 mm 3 mps 681 mmHg 24%
    14:00 +37°C° 0 mm 4 mps 681 mmHg 22%
    15:00 +38°C° 0 mm 4 mps 681 mmHg 21%
    16:00 +37°C° 0 mm 3 mps 680 mmHg 23%
    17:00 +36°C° 0 mm 3 mps 680 mmHg 26%
    18:00 +35°C° 0 mm 2 mps 680 mmHg 28%
    19:00 +32°C° 0.1 mm 2 mps 680 mmHg 36%
    20:00 +29°C° 0.1 mm 3 mps 681 mmHg 44%
    21:00 +27°C° 0.1 mm 3 mps 681 mmHg 51%
    22:00 +26°C° 0 mm 3 mps 681 mmHg 55%
    23:00 +25°C° 0 mm 3 mps 681 mmHg 59%

    Tomorrow, 20 July, Friday

    Time Temperature Precipitation Wind Pressure Humidity
    00:00 +25°C° 0 mm 3 mps 681 mmHg 63%
    01:00 +24°C° 0 mm 2 mps 681 mmHg 64%
    02:00 +24°C° 0 mm 2 mps 681 mmHg 64%
    03:00 +23°C° 0 mm 2 mps 681 mmHg 65%
    04:00 +24°C° 0 mm 2 mps 681 mmHg 62%
    05:00 +24°C° 0 mm 2 mps 681 mmHg 60%
    06:00 +25°C° 0 mm 1 mps 681 mmHg 57%
    07:00 +27°C° 0 mm 2 mps 681 mmHg 48%
    08:00 +29°C° 0 mm 2 mps 681 mmHg 39%
    09:00 +32°C° 0 mm 2 mps 681 mmHg 30%
    10:00 +34°C° 0 mm 2 mps 681 mmHg 27%
    11:00 +35°C° 0 mm 2 mps 681 mmHg 23%
    12:00 +36°C° 0 mm 3 mps 681 mmHg 20%
    13:00 +37°C° 0 mm 3 mps 681 mmHg 19%
    14:00 +37°C° 0 mm 3 mps 680 mmHg 18%
    15:00 +38°C° 0 mm 3 mps 680 mmHg 17%
    16:00 +37°C° 0.1 mm 3 mps 680 mmHg 20%
    17:00 +36°C° 0.1 mm 3 mps 680 mmHg 23%
    18:00 +35°C° 0.1 mm 3 mps 679 mmHg 25%
    19:00 +33°C° 0 mm 3 mps 680 mmHg 33%
    20:00 +29°C° 0 mm 3 mps 680 mmHg 41%
    21:00 +27°C° 0 mm 3 mps 680 mmHg 49%
    22:00 +26°C° 0.1 mm 3 mps 680 mmHg 51%
    23:00 +25°C° 0.1 mm 3 mps 680 mmHg 53%

    Day after tomorrow, 21 July, Saturday

    Time Temperature Precipitation Wind Pressure Humidity
    00:00 +25°C° 0.1 mm 3 mps 681 mmHg 56%
    01:00 +24°C° 0.1 mm 3 mps 681 mmHg 58%
    02:00 +22°C° 0.1 mm 3 mps 681 mmHg 60%
    03:00 +22°C° 0.1 mm 3 mps 681 mmHg 63%
    04:00 +22°C° 0 mm 3 mps 681 mmHg 62%
    05:00 +23°C° 0 mm 2 mps 681 mmHg 62%
    06:00 +23°C° 0 mm 2 mps 681 mmHg 62%
    07:00 +26°C° 0 mm 2 mps 682 mmHg 55%
    08:00 +28°C° 0 mm 2 mps 682 mmHg 48%
    09:00 +30°C° 0 mm 2 mps 682 mmHg 41%
    10:00 +31°C° 0 mm 2 mps 682 mmHg 37%
    11:00 +32°C° 0 mm 2 mps 682 mmHg 33%
    12:00 +35°C° 0 mm 2 mps 682 mmHg 29%
    13:00 +35°C° 0.1 mm 2 mps 682 mmHg 28%
    14:00 +35°C° 0.1 mm 2 mps 682 mmHg 27%
    15:00 +36°C° 0.1 mm 3 mps 681 mmHg 26%
    16:00 +35°C° 0.1 mm 3 mps 681 mmHg 30%
    17:00 +34°C° 0.1 mm 4 mps 681 mmHg 33%
    18:00 +34°C° 0.1 mm 4 mps 681 mmHg 37%
    19:00 +30°C° 0.2 mm 4 mps 681 mmHg 44%
    20:00 +28°C° 0.2 mm 3 mps 682 mmHg 51%
    21:00 +26°C° 0.2 mm 3 mps 682 mmHg 58%
    22:00 +25°C° 0.1 mm 3 mps 682 mmHg 60%
    23:00 +25°C° 0.1 mm 3 mps 682 mmHg 63%

    22 July, Sunday

    Time Temperature Precipitation Wind Pressure Humidity
    00:00 +24°C° 0.1 mm 3 mps 682 mmHg 65%
    01:00 +24°C° 0.1 mm 3 mps 682 mmHg 68%
    02:00 +22°C° 0.1 mm 3 mps 682 mmHg 71%
    03:00 +21°C° 0.1 mm 2 mps 682 mmHg 73%
    04:00 +23°C° 0.1 mm 2 mps 682 mmHg 73%
    05:00 +23°C° 0.1 mm 2 mps 682 mmHg 72%
    06:00 +24°C° 0.1 mm 2 mps 683 mmHg 72%
    07:00 +25°C° 0 mm 2 mps 683 mmHg 64%
    08:00 +27°C° 0 mm 2 mps 683 mmHg 56%
    09:00 +29°C° 0 mm 2 mps 683 mmHg 49%
    10:00 +30°C° 0.1 mm 2 mps 682 mmHg 44%
    11:00 +32°C° 0.1 mm 2 mps 682 mmHg 39%
    12:00 +34°C° 0.1 mm 2 mps 682 mmHg 34%
    13:00 +35°C° 0.1 mm 3 mps 682 mmHg 33%
    14:00 +35°C° 0.1 mm 3 mps 681 mmHg 32%
    15:00 +36°C° 0.1 mm 3 mps 681 mmHg 31%
    16:00 +34°C° 0.5 mm 3 mps 681 mmHg 36%
    17:00 +32°C° 0.5 mm 4 mps 681 mmHg 42%
    18:00 +29°C° 0.5 mm 4 mps 681 mmHg 47%
    19:00 +28°C° 0.3 mm 3 mps 681 mmHg 52%
    20:00 +27°C° 0.3 mm 3 mps 681 mmHg 57%
    21:00 +25°C° 0.3 mm 2 mps 682 mmHg 62%
    22:00 +25°C° 0.1 mm 2 mps 682 mmHg 64%
    23:00 +24°C° 0.1 mm 2 mps 682 mmHg 66%

    23 July, Monday

    Time Temperature Precipitation Wind Pressure Humidity
    00:00 +23°C° 0.1 mm 2 mps 682 mmHg 68%
    01:00 +23°C° 0.2 mm 2 mps 681 mmHg 70%
    02:00 +23°C° 0.2 mm 2 mps 681 mmHg 72%
    03:00 +21°C° 0.2 mm 2 mps 681 mmHg 73%
    04:00 +23°C° 0.1 mm 2 mps 681 mmHg 73%
    05:00 +23°C° 0.1 mm 2 mps 682 mmHg 72%
    06:00 +23°C° 0.1 mm 2 mps 682 mmHg 72%
    07:00 +25°C° 0.1 mm 2 mps 682 mmHg 63%
    08:00 +27°C° 0.1 mm 2 mps 682 mmHg 55%
    09:00 +29°C° 0.1 mm 2 mps 682 mmHg 47%
    10:00 +30°C° 0.4 mm 2 mps 682 mmHg 43%
    11:00 +32°C° 0.4 mm 2 mps 681 mmHg 38%
    12:00 +34°C° 0.4 mm 2 mps 681 mmHg 34%
    13:00 +34°C° 0.4 mm 2 mps 681 mmHg 33%
    14:00 +35°C° 0.4 mm 2 mps 681 mmHg 33%
    15:00 +35°C° 0.4 mm 2 mps 680 mmHg 33%
    16:00 +33°C° 0.8 mm 3 mps 680 mmHg 38%
    17:00 +31°C° 0.8 mm 3 mps 680 mmHg 44%
    18:00 +30°C° 0.8 mm 3 mps 680 mmHg 50%
    19:00 +28°C° 0.4 mm 3 mps 681 mmHg 54%
    20:00 +27°C° 0.4 mm 3 mps 681 mmHg 59%
    21:00 +25°C° 0.4 mm 2 mps 682 mmHg 63%
    22:00 +25°C° 0.4 mm 2 mps 682 mmHg 65%
    23:00 +24°C° 0.4 mm 2 mps 682 mmHg 67%

    24 July, Tuesday

    Time Temperature Precipitation Wind Pressure Humidity
    00:00 +24°C° 0.4 mm 2 mps 682 mmHg 69%
    01:00 +23°C° 0.1 mm 2 mps 682 mmHg 70%
    02:00 +23°C° 0.1 mm 2 mps 682 mmHg 71%
    03:00 +23°C° 0.1 mm 2 mps 682 mmHg 72%
    04:00 +23°C° 0 mm 1 mps 682 mmHg 71%
    05:00 +23°C° 0 mm 1 mps 682 mmHg 69%
    06:00 +24°C° 0 mm 1 mps 682 mmHg 68%
    07:00 +26°C° 0 mm 1 mps 683 mmHg 60%
    08:00 +28°C° 0 mm 1 mps 683 mmHg 51%
    09:00 +30°C° 0 mm 1 mps 683 mmHg 43%
    10:00 +31°C° 0 mm 2 mps 683 mmHg 39%
    11:00 +34°C° 0 mm 2 mps 683 mmHg 34%
    12:00 +35°C° 0 mm 2 mps 683 mmHg 30%
    13:00 +36°C° 0 mm 2 mps 682 mmHg 28%
    14:00 +37°C° 0 mm 2 mps 682 mmHg 26%
    15:00 +37°C° 0 mm 2 mps 682 mmHg 25%
    16:00 +37°C° 0 mm 2 mps 682 mmHg 26%
    17:00 +36°C° 0 mm 2 mps 682 mmHg 28%
    18:00 +35°C° 0 mm 1 mps 682 mmHg 30%
    19:00 +34°C° 0 mm 2 mps 682 mmHg 38%
    20:00 +30°C° 0 mm 2 mps 683 mmHg 45%
    21:00 +28°C° 0 mm 3 mps 683 mmHg 52%
    22:00 +27°C° 0.1 mm 2 mps 683 mmHg 55%
    23:00 +27°C° 0.1 mm 2 mps 683 mmHg 58%
    Show more